AB4KN Weather Reports


Display with metric or nautical units.
time (UTC)temp
F
wind
direction
speed
MPH
gust
MPH
rain 1hr
in
rain 24hr
in
rain mn
in
humidity
%
barometer
mb
20260503215653 71 246 3.0 3.0 0.00 0.00 0.00 31 1022.2
20260503215150 70 203 5.0 7.0 0.00 0.00 0.00 33 1022.0
20260503214649 70 253 1.0 2.0 0.00 0.00 0.00 32 1022.1
20260503214144 71 242 5.0 5.0 0.00 0.00 0.00 32 1022.1
20260503213644 71 261 0.0 0.0 0.00 0.00 0.00 33 1022.2
20260503213140 70 199 0.0 2.0 0.00 0.00 0.00 36 1022.3
20260503212637 70 286 0.0 0.0 0.00 0.00 0.00 35 1022.3
20260503212135 70 300 0.0 0.0 0.00 0.00 0.00 34 1022.4
20260503211633 71 247 2.0 2.0 0.00 0.00 0.00 32 1022.6
20260503211127 71 240 0.0 2.0 0.00 0.00 0.00 36 1022.5
20260503210624 71 297 0.0 0.0 0.00 0.00 0.00 32 1022.4
20260503210121 71 188 0.0 2.0 0.00 0.00 0.00 32 1022.4
20260503205616 71 59 0.0 0.0 0.00 0.00 0.00 32 1022.4
20260503205113 71 271 2.0 5.0 0.00 0.00 0.00 32 1022.6
20260503204610 70 204 2.0 3.0 0.00 0.00 0.00 32 1022.7
20260503204107 71 306 0.0 0.0 0.00 0.00 0.00 34 1022.9
20260503203604 71 314 1.0 2.0 0.00 0.00 0.00 34 1022.7
20260503203101 70 239 0.0 0.0 0.00 0.00 0.00 35 1022.9
20260503202559 70 244 3.0 3.0 0.00 0.00 0.00 34 1022.7
20260503202057 71 201 0.0 0.0 0.00 0.00 0.00 32 1023.0
20260503201555 71 259 0.0 0.0 0.00 0.00 0.00 32 1023.0
20260503201052 70 229 0.0 0.0 0.00 0.00 0.00 33 1023.2
20260503200548 71 198 5.0 7.0 0.00 0.00 0.00 34 1023.2
20260503200044 70 261 0.0 0.0 0.00 0.00 0.00 36 1023.4
20260503195542 70 189 3.0 3.0 0.00 0.00 0.00 33 1023.2
20260503195038 70 243 4.0 5.0 0.00 0.00 0.00 33 1023.4
20260503194535 70 184 3.0 3.0 0.00 0.00 0.00 31 1023.3
20260503194030 69 294 0.0 0.0 0.00 0.00 0.00 34 1023.5
20260503193527 69 318 0.0 0.0 0.00 0.00 0.00 34 1023.7
20260503193022 70 321 2.0 2.0 0.00 0.00 0.00 35 1023.9
20260503192518 69 303 1.0 2.0 0.00 0.00 0.00 36 1024.0
20260503192014 69 241 0.0 0.0 0.00 0.00 0.00 35 1023.9
20260503191512 69 339 0.0 0.0 0.00 0.00 0.00 35 1023.9
20260503191008 69 327 3.0 3.0 0.00 0.00 0.00 37 1023.8
20260503190505 69 312 0.0 0.0 0.00 0.00 0.00 37 1024.3
20260503190003 69 304 3.0 3.0 0.00 0.00 0.00 38 1024.1
20260503185458 68 240 0.0 0.0 0.00 0.00 0.00 37 1024.4
20260503184958 68 316 0.0 2.0 0.00 0.00 0.00 35 1024.3
20260503184454 68 305 0.0 0.0 0.00 0.00 0.00 35 1024.2
20260503183951 68 286 0.0 0.0 0.00 0.00 0.00 36 1024.6
20260503183448 68 283 0.0 0.0 0.00 0.00 0.00 35 1024.7
20260503182944 68 279 0.0 0.0 0.00 0.00 0.00 37 1024.6
20260503182443 68 247 0.0 2.0 0.00 0.00 0.00 36 1025.0
20260503181941 68 248 3.0 5.0 0.00 0.00 0.00 34 1025.0
20260503181438 68 291 0.0 0.0 0.00 0.00 0.00 35 1024.8
20260503180933 68 194 0.0 0.0 0.00 0.00 0.00 32 1025.0
20260503180432 68 294 1.0 3.0 0.00 0.00 0.00 39 1025.1
20260503175928 68 245 3.0 3.0 0.00 0.00 0.00 36 1024.9
20260503175427 68 248 0.0 0.0 0.00 0.00 0.00 37 1025.1
20260503174922 68 210 1.0 2.0 0.00 0.00 0.00 36 1025.0
20260503174421 67 303 1.0 2.0 0.00 0.00 0.00 38 1025.1
20260503173920 67 304 0.0 2.0 0.00 0.00 0.00 38 1025.2
20260503173417 67 143 3.0 3.0 0.00 0.00 0.00 34 1025.2
20260503172914 68 316 1.0 2.0 0.00 0.00 0.00 34 1025.3
20260503172411 67 275 1.0 2.0 0.00 0.00 0.00 40 1025.3
20260503171907 68 233 0.0 0.0 0.00 0.00 0.00 38 1025.2
20260503171404 67 276 0.0 0.0 0.00 0.00 0.00 36 1025.4
20260503170902 66 250 3.0 3.0 0.00 0.00 0.00 38 1025.5
20260503170358 67 157 3.0 5.0 0.00 0.00 0.00 37 1025.2
20260503150750 60 263 3.0 3.0 0.00 0.00 0.00 49 1026.0
20260503150246 60 266 0.0 0.0 0.00 0.00 0.00 52 1026.2
20260503140211 56 298 0.0 0.0 0.00 0.00 0.00 66 1025.6
20260503131140 52 296 0.0 0.0 0.00 0.00 0.00 74 1025.8
20260503130638 52 308 0.0 0.0 0.00 0.00 0.00 73 1025.6
20260503130135 52 308 0.0 0.0 0.00 0.00 0.00 73 1025.4
20260503110527 44 306 0.0 0.0 0.00 0.00 0.00 82 1024.8
20260503090414 46 307 0.0 0.0 0.00 0.00 0.00 80 1024.2
20260503081341 46 307 0.0 0.0 0.00 0.00 0.00 78 1023.6
20260503080838 46 307 0.0 0.0 0.00 0.00 0.00 78 1023.4
20260503080335 46 307 0.0 0.0 0.00 0.00 0.00 77 1023.7
20260503072811 49 307 0.0 0.0 0.00 0.00 0.00 72 1023.1
20260503072308 49 307 0.0 0.0 0.00 0.00 0.00 72 1023.3
20260503071804 50 307 0.0 0.0 0.00 0.00 0.00 71 1023.3
20260503071302 50 307 0.0 0.0 0.00 0.00 0.00 70 1023.1
20260503070758 49 307 0.0 0.0 0.00 0.00 0.00 70 1023.0
20260503070256 50 307 0.0 0.0 0.00 0.00 0.00 70 1023.2
20260503060221 49 307 0.0 0.0 0.00 0.00 0.00 71 1023.0
20260503054708 48 307 0.0 0.0 0.00 0.00 0.00 76 1022.9
20260503054205 48 307 0.0 0.0 0.00 0.00 0.00 75 1023.0
20260503053703 48 307 0.0 0.0 0.00 0.00 0.00 75 1023.2
20260503053201 48 307 0.0 0.0 0.00 0.00 0.00 75 1023.0
20260503052657 48 307 0.0 0.0 0.00 0.00 0.00 74 1023.1
20260503052154 48 307 0.0 0.0 0.00 0.00 0.00 74 1023.0
20260503051649 48 307 0.0 0.0 0.00 0.00 0.00 74 1022.9
20260503051147 49 307 0.0 0.0 0.00 0.00 0.00 74 1023.1
20260503050644 49 307 0.0 0.0 0.00 0.00 0.00 74 1022.6
20260503050140 49 307 0.0 0.0 0.00 0.00 0.00 74 1022.5
20260503045638 49 307 0.0 0.0 0.00 0.00 0.00 74 1022.6
20260503045135 49 307 0.0 0.0 0.00 0.00 0.00 75 1022.6
20260503044631 50 308 0.0 0.0 0.00 0.00 0.00 74 1022.7
20260503044129 50 308 0.0 0.0 0.00 0.00 0.00 73 1022.6
20260503043626 50 308 0.0 0.0 0.00 0.00 0.00 72 1022.5
20260503043122 50 308 0.0 0.0 0.00 0.00 0.00 71 1022.4
20260503042619 50 308 0.0 0.0 0.00 0.00 0.00 70 1022.4
20260503042115 50 308 0.0 0.0 0.00 0.00 0.00 70 1022.4
20260503041612 51 308 0.0 0.0 0.00 0.00 0.00 68 1022.3
20260503041110 51 308 0.0 0.0 0.00 0.00 0.00 69 1022.4
20260503040607 51 308 0.0 0.0 0.00 0.00 0.00 69 1022.2
20260503040104 51 308 0.0 0.0 0.00 0.00 0.00 68 1022.3
20260503035600 51 308 0.0 0.0 0.00 0.04 0.04 68 1022.1
20260503035058 51 308 0.0 0.0 0.00 0.04 0.04 68 1022.1
20260503034555 51 308 0.0 0.0 0.00 0.04 0.04 67 1022.1
20260503034052 51 308 0.0 0.0 0.00 0.04 0.04 68 1022.2
20260503033549 51 308 0.0 0.0 0.00 0.04 0.04 68 1022.1
20260503033047 51 308 0.0 0.0 0.00 0.04 0.04 65 1022.2
20260503032545 52 308 0.0 0.0 0.00 0.04 0.04 65 1022.0
20260503032043 52 308 0.0 0.0 0.00 0.04 0.04 65 1022.0
20260503031541 52 308 0.0 0.0 0.00 0.04 0.04 66 1021.8
20260503031038 52 308 0.0 0.0 0.00 0.04 0.04 67 1021.9
20260503030533 52 308 0.0 0.0 0.00 0.04 0.04 66 1022.0
20260503030031 52 308 0.0 0.0 0.00 0.04 0.04 66 1022.0
20260503025527 52 308 0.0 0.0 0.00 0.04 0.04 64 1022.0
20260503025026 53 308 0.0 0.0 0.00 0.04 0.04 65 1021.7
20260503024521 53 308 0.0 0.0 0.00 0.04 0.04 65 1021.6
20260503024019 53 308 0.0 0.0 0.00 0.04 0.04 65 1021.8
20260503023515 53 308 0.0 0.0 0.00 0.04 0.04 65 1021.6
20260503023013 53 308 0.0 0.0 0.00 0.04 0.04 64 1021.7
20260503022508 53 308 0.0 0.0 0.00 0.04 0.04 63 1021.5
20260503022003 54 308 0.0 0.0 0.00 0.04 0.04 64 1021.6
20260503021500 54 308 0.0 0.0 0.00 0.04 0.04 63 1021.4
20260503020957 54 308 0.0 0.0 0.00 0.04 0.04 60 1021.2
20260503020455 55 308 0.0 0.0 0.00 0.04 0.04 60 1021.2
20260503015951 55 308 0.0 0.0 0.00 0.04 0.04 59 1020.9
20260503015448 55 308 0.0 0.0 0.00 0.04 0.04 59 1021.0
20260503014944 55 308 0.0 0.0 0.00 0.04 0.04 60 1020.9
20260503014441 55 308 0.0 0.0 0.00 0.04 0.04 59 1020.9
20260503013939 56 308 0.0 0.0 0.00 0.04 0.04 58 1021.1
20260503013436 56 308 0.0 0.0 0.00 0.04 0.04 58 1020.6
20260503012933 56 308 0.0 0.0 0.00 0.04 0.04 57 1020.7
20260503012432 56 308 0.0 0.0 0.00 0.04 0.04 55 1020.6
20260503011927 57 308 0.0 0.0 0.00 0.04 0.04 54 1020.4
20260503011424 57 308 0.0 0.0 0.00 0.04 0.04 53 1020.3
20260503010921 58 308 0.0 0.0 0.00 0.04 0.04 52 1020.3
20260503010418 58 308 0.0 0.0 0.00 0.04 0.04 52 1020.1
20260503005915 59 308 0.0 0.0 0.00 0.04 0.04 51 1020.3
20260503005413 59 308 0.0 0.0 0.00 0.04 0.04 50 1020.4
20260503004909 60 308 0.0 0.0 0.00 0.04 0.04 49 1020.2
20260503004406 60 308 0.0 0.0 0.00 0.04 0.04 47 1020.0
20260503003904 61 308 0.0 0.0 0.00 0.04 0.04 47 1020.0
20260503003400 61 308 0.0 0.0 0.00 0.04 0.04 47 1019.9
20260503002857 61 308 0.0 0.0 0.00 0.04 0.04 45 1019.7
20260503002355 62 308 0.0 0.0 0.00 0.04 0.04 44 1019.9
20260503001850 62 308 0.0 0.0 0.00 0.04 0.04 43 1019.8
20260503001347 62 309 0.0 0.0 0.00 0.04 0.04 42 1019.6
20260503000845 62 315 0.0 0.0 0.00 0.04 0.04 42 1019.5
20260503000342 63 315 0.0 0.0 0.00 0.04 0.04 41 1019.5
20260502235839 63 314 0.0 0.0 0.00 0.04 0.04 40 1019.3
20260502235336 63 315 0.0 0.0 0.00 0.04 0.04 40 1019.0
20260502234833 63 315 0.0 0.0 0.00 0.04 0.04 40 1018.9
20260502234329 63 315 0.0 0.0 0.00 0.04 0.04 39 1018.7
20260502233826 63 315 0.0 0.0 0.00 0.04 0.04 39 1019.0
20260502233323 63 315 0.0 0.0 0.00 0.04 0.04 39 1018.8
20260502232820 64 315 0.0 0.0 0.00 0.04 0.04 39 1018.7
20260502232316 64 315 0.0 0.0 0.00 0.04 0.04 38 1018.6
20260502231812 64 315 0.0 0.0 0.00 0.04 0.04 38 1018.7
20260502231310 64 330 0.0 0.0 0.00 0.04 0.04 36 1018.3
20260502230808 64 312 0.0 0.0 0.00 0.04 0.04 36 1018.6
20260502230306 64 315 0.0 0.0 0.00 0.04 0.04 36 1018.5
20260502225803 64 319 0.0 0.0 0.00 0.04 0.04 37 1018.5
20260502225259 64 308 0.0 0.0 0.00 0.04 0.04 34 1018.6
20260502224755 65 315 0.0 0.0 0.00 0.04 0.04 33 1018.5
20260502224252 65 312 0.0 0.0 0.00 0.04 0.04 32 1018.4
20260502223750 65 308 0.0 0.0 0.00 0.04 0.04 33 1018.4
20260502223248 65 318 0.0 0.0 0.00 0.04 0.04 35 1018.3
20260502222745 66 322 0.0 0.0 0.00 0.04 0.04 34 1018.4
20260502222242 66 317 0.0 0.0 0.00 0.04 0.04 34 1018.4
20260502221738 66 310 0.0 0.0 0.00 0.04 0.04 34 1018.2
20260502221235 66 314 0.0 0.0 0.00 0.04 0.04 32 1018.0
20260502220731 66 318 2.0 3.0 0.00 0.04 0.04 33 1018.2
20260502220227 66 330 0.0 0.0 0.00 0.04 0.04 37 1017.8
20260502215724 66 319 0.0 0.0 0.00 0.04 0.04 34 1017.9